TimeEDT,TemperatureF,Dew PointF,Humidity,Sea Level PressureIn,VisibilityMPH,Wind Direction,Wind SpeedMPH,Gust SpeedMPH,PrecipitationIn,Events,Conditions,WindDirDegrees,DateUTC
12:56 AM,69.1,66.0,90,30.02,7.0,West,4.6,-,N/A,,Clear,260,2013-08-20 04:56:00
1:56 AM,68.0,64.9,90,30.01,8.0,West,5.8,-,N/A,,Clear,270,2013-08-20 05:56:00
2:56 AM,66.9,64.0,90,30.02,8.0,West,4.6,-,N/A,,Clear,270,2013-08-20 06:56:00
3:56 AM,64.9,62.1,90,30.02,7.0,Calm,Calm,-,N/A,,Clear,0,2013-08-20 07:56:00
4:56 AM,64.9,63.0,93,30.03,6.0,Calm,Calm,-,N/A,,Clear,0,2013-08-20 08:56:00
5:54 AM,62.6,60.8,94,30.04,1.8,Calm,Calm,-,N/A,,Clear,0,2013-08-20 09:54:00
5:56 AM,62.1,61.0,96,30.04,1.8,Calm,Calm,-,N/A,,Clear,0,2013-08-20 09:56:00
5:59 AM,62.6,60.8,94,30.04,1.0,Calm,Calm,-,N/A,,Mist,0,2013-08-20 09:59:00
6:10 AM,62.6,62.6,100,30.04,2.0,Calm,Calm,-,N/A,,Partly Cloudy,0,2013-08-20 10:10:00
6:20 AM,62.6,62.6,100,30.05,3.0,Calm,Calm,-,N/A,,Partly Cloudy,0,2013-08-20 10:20:00
6:56 AM,63.0,61.0,93,30.06,5.0,Calm,Calm,-,N/A,,Clear,0,2013-08-20 10:56:00
7:56 AM,68.0,64.0,87,30.08,6.0,Calm,Calm,-,N/A,,Clear,0,2013-08-20 11:56:00
8:56 AM,73.0,63.0,71,30.08,8.0,Variable,3.5,-,N/A,,Clear,0,2013-08-20 12:56:00
9:56 AM,78.1,62.1,58,30.09,8.0,NW,6.9,-,N/A,,Clear,310,2013-08-20 13:56:00
10:56 AM,81.0,59.0,47,30.09,9.0,NNW,9.2,-,N/A,,Clear,330,2013-08-20 14:56:00
11:56 AM,79.0,66.9,66,30.09,8.0,SW,8.1,-,N/A,,Clear,230,2013-08-20 15:56:00
12:56 PM,79.0,66.0,64,30.08,8.0,WSW,5.8,-,N/A,,Clear,240,2013-08-20 16:56:00
1:56 PM,80.1,66.0,62,30.07,8.0,WSW,11.5,-,N/A,,Clear,250,2013-08-20 17:56:00
2:56 PM,81.0,63.0,54,30.06,8.0,WSW,11.5,-,N/A,,Clear,240,2013-08-20 18:56:00
3:56 PM,80.1,63.0,56,30.06,8.0,SW,12.7,-,N/A,,Clear,230,2013-08-20 19:56:00
4:56 PM,80.1,62.1,54,30.06,8.0,WSW,11.5,-,N/A,,Clear,240,2013-08-20 20:56:00
5:56 PM,80.1,62.1,54,30.07,8.0,WSW,6.9,-,N/A,,Clear,250,2013-08-20 21:56:00
6:56 PM,78.1,61.0,56,30.07,8.0,West,5.8,-,N/A,,Clear,260,2013-08-20 22:56:00
7:56 PM,72.0,64.9,78,30.08,7.0,SW,5.8,-,N/A,,Clear,230,2013-08-20 23:56:00
8:56 PM,72.0,64.0,76,30.10,8.0,Calm,Calm,-,N/A,,Clear,0,2013-08-21 00:56:00
9:56 PM,71.1,64.0,78,30.12,8.0,West,3.5,-,N/A,,Clear,270,2013-08-21 01:56:00
10:56 PM,71.1,66.0,84,30.11,8.0,Calm,Calm,-,N/A,,Clear,0,2013-08-21 02:56:00
11:56 PM,70.0,66.0,87,30.12,8.0,West,3.5,-,N/A,,Clear,280,2013-08-21 03:56:00